This is the latest recevied weather packets stored in our database for station/object W5COG. If no packets are shown the sender has not sent any weather packets the latest 10 day(s).
| Time | Temp. | Humidity | Pressure | Rain* | Wind** | Luminosity | Snow |
|---|---|---|---|---|---|---|---|
| 1778282428 | 20.56° C | 60% | 1007.6 hPa | 0 mm | - | 6 W/m² | - |
| 1778282128 | 21.11° C | 55% | 1007.4 hPa | 0 mm | - | 3 W/m² | - |
| 1778281829 | 21.67° C | 51% | 1006.7 hPa | 0 mm | - | 3 W/m² | - |
| 1778281529 | 22.22° C | 52% | 1006.1 hPa | 0 mm | - | 3 W/m² | - |
| 1778281229 | 23.89° C | 54% | 1005.8 hPa | 0 mm | - | 5 W/m² | - |
| 1778280929 | 25.56° C | 48% | 1005.9 hPa | 0 mm | - | 21 W/m² | - |
| 1778280629 | 26.11° C | 48% | 1005.6 hPa | 0 mm | - | 62 W/m² | - |
| 1778280329 | 26.67° C | 48% | 1005.5 hPa | 0 mm | - | 84 W/m² | - |
| 1778280029 | 27.22° C | 46% | 1005.5 hPa | 0 mm | - | 121 W/m² | - |
| 1778279729 | 27.22° C | 47% | 1005.6 hPa | 0 mm | - | 453 W/m² | - |
| 1778279429 | 27.22° C | 46% | 1005.7 hPa | 0 mm | - | 493 W/m² | - |
| 1778279129 | 27.22° C | 46% | 1005.7 hPa | 0 mm | - | 486 W/m² | - |
| 1778278829 | 27.22° C | 46% | 1005.8 hPa | 0 mm | - | 511 W/m² | - |
| 1778278529 | 27.22° C | 45% | 1005.8 hPa | 0 mm | - | 533 W/m² | - |
| 1778278229 | 27.22° C | 45% | 1005.7 hPa | 0 mm | - | 543 W/m² | - |
| 1778277929 | 27.22° C | 46% | 1005.7 hPa | 0 mm | - | 585 W/m² | - |
| 1778277629 | 27.22° C | 46% | 1005.7 hPa | 0 mm | - | 651 W/m² | - |
| 1778277329 | 27.22° C | 46% | 1005.9 hPa | 0 mm | - | 299 W/m² | - |
| 1778277029 | 27.78° C | 45% | 1006 hPa | 0 mm | - | 534 W/m² | - |
| 1778276729 | 27.78° C | 45% | 1006.2 hPa | 0 mm | - | 351 W/m² | - |
| 1778276429 | 27.78° C | 44% | 1006.3 hPa | 0 mm | - | 649 W/m² | - |
| 1778276129 | 27.78° C | 44% | 1006.2 hPa | 0 mm | - | 646 W/m² | - |
| 1778275829 | 27.78° C | 44% | 1006.2 hPa | 0 mm | - | 644 W/m² | - |
| 1778275529 | 27.78° C | 43% | 1006.3 hPa | 0 mm | - | 658 W/m² | - |
| 1778275228 | 27.78° C | 43% | 1006.5 hPa | 0 mm | - | 669 W/m² | - |
* Rain latest hour (hover to see other rain measurements)
** Current wind speed in m/s (hover to see current wind gust speed)